owner,sensor,date,latitude,longitude,air_temperature,qcFlag 
ADCP,ioos:station:wmo:42395:1,2019-10-01T00:00:00Z,26.4040,-90.7920,29.10156,11111222 
ADCP,ioos:station:wmo:42395:1,2019-10-01T00:20:00Z,26.4040,-90.7920,29.10156,11111222 
ADCP,ioos:station:wmo:42395:1,2019-10-01T00:40:00Z,26.4040,-90.7920,29.03809,11111222 
ADCP,ioos:station:wmo:42395:1,2019-10-01T01:00:00Z,26.4040,-90.7920,28.97461,11111222 
ADCP,ioos:station:wmo:42395:1,2019-10-01T01:20:00Z,26.4040,-90.7920,29.03809,11111222 
ADCP,ioos:station:wmo:42395:1,2019-10-01T01:40:00Z,26.4040,-90.7920,29.10156,11111222 
ADCP,ioos:station:wmo:42395:1,2019-10-01T02:00:00Z,26.4040,-90.7920,29.03809,11111222 
ADCP,ioos:station:wmo:42395:1,2019-10-01T02:20:00Z,26.4040,-90.7920,29.10156,11111222 
ADCP,ioos:station:wmo:42395:1,2019-10-01T02:40:00Z,26.4040,-90.7920,29.10156,11111222 
ADCP,ioos:station:wmo:42395:1,2019-10-01T03:00:00Z,26.4040,-90.7920,29.10156,11111222 
ADCP,ioos:station:wmo:42395:1,2019-10-01T03:20:00Z,26.4040,-90.7920,29.03809,11111222 
ADCP,ioos:station:wmo:42395:1,2019-10-01T03:40:00Z,26.4040,-90.7920,29.03809,11111222 
ADCP,ioos:station:wmo:42395:1,2019-10-01T04:00:00Z,26.4040,-90.7920,29.03809,11111222 
ADCP,ioos:station:wmo:42395:1,2019-10-01T04:20:00Z,26.4040,-90.7920,28.97461,11111222 
ADCP,ioos:station:wmo:42395:1,2019-10-01T04:40:00Z,26.4040,-90.7920,28.97461,11111222 
ADCP,ioos:station:wmo:42395:1,2019-10-01T05:00:00Z,26.4040,-90.7920,28.97461,11111222 
ADCP,ioos:station:wmo:42395:1,2019-10-01T05:20:00Z,26.4040,-90.7920,28.97461,11111222 
ADCP,ioos:station:wmo:42395:1,2019-10-01T05:40:00Z,26.4040,-90.7920,28.97461,11111222 
ADCP,ioos:station:wmo:42395:1,2019-10-01T06:00:00Z,26.4040,-90.7920,28.97461,11111222 
ADCP,ioos:station:wmo:42395:1,2019-10-01T06:20:00Z,26.4040,-90.7920,28.91113,11111222 
ADCP,ioos:station:wmo:42395:1,2019-10-01T06:40:00Z,26.4040,-90.7920,28.91113,11111222 
ADCP,ioos:station:wmo:42395:1,2019-10-01T07:00:00Z,26.4040,-90.7920,28.84766,11111222 
ADCP,ioos:station:wmo:42395:1,2019-10-01T07:20:00Z,26.4040,-90.7920,28.84766,11111222 
ADCP,ioos:station:wmo:42395:1,2019-10-01T07:40:00Z,26.4040,-90.7920,28.84766,11111222 
ADCP,ioos:station:wmo:42395:1,2019-10-01T08:00:00Z,26.4040,-90.7920,28.84766,11111222 
ADCP,ioos:station:wmo:42395:1,2019-10-01T08:20:00Z,26.4040,-90.7920,28.84766,11111222 
ADCP,ioos:station:wmo:42395:1,2019-10-01T08:40:00Z,26.4040,-90.7920,28.84766,11111222 
ADCP,ioos:station:wmo:42395:1,2019-10-01T09:00:00Z,26.4040,-90.7920,28.78418,11111222 
ADCP,ioos:station:wmo:42395:1,2019-10-01T09:20:00Z,26.4040,-90.7920,28.78418,11111222 
ADCP,ioos:station:wmo:42395:1,2019-10-01T09:40:00Z,26.4040,-90.7920,28.84766,11111222 
ADCP,ioos:station:wmo:42395:1,2019-10-01T10:00:00Z,26.4040,-90.7920,28.84766,11111222 
ADCP,ioos:station:wmo:42395:1,2019-10-01T10:20:00Z,26.4040,-90.7920,28.84766,11111222 
ADCP,ioos:station:wmo:42395:1,2019-10-01T10:40:00Z,26.4040,-90.7920,28.78418,11111222 
ADCP,ioos:station:wmo:42395:1,2019-10-01T11:00:00Z,26.4040,-90.7920,28.78418,11111222 
ADCP,ioos:station:wmo:42395:1,2019-10-01T11:20:00Z,26.4040,-90.7920,28.84766,11111222 
ADCP,ioos:station:wmo:42395:1,2019-10-01T11:40:00Z,26.4040,-90.7920,28.78418,11111222 
ADCP,ioos:station:wmo:42395:1,2019-10-01T12:00:00Z,26.4040,-90.7920,28.78418,11111222 
ADCP,ioos:station:wmo:42395:1,2019-10-01T12:20:00Z,26.4040,-90.7920,28.7207,11111222 
ADCP,ioos:station:wmo:42395:1,2019-10-01T12:40:00Z,26.4040,-90.7920,28.7207,11111222 
ADCP,ioos:station:wmo:42395:1,2019-10-01T13:00:00Z,26.4040,-90.7920,28.78418,11111222 
ADCP,ioos:station:wmo:42395:1,2019-10-01T13:20:00Z,26.4040,-90.7920,28.78418,11111222 
ADCP,ioos:station:wmo:42395:1,2019-10-01T14:00:00Z,26.4040,-90.7920,28.84766,11111222 
ADCP,ioos:station:wmo:42395:1,2019-10-01T14:20:00Z,26.4040,-90.7920,28.91113,11111222 
ADCP,ioos:station:wmo:42395:1,2019-10-01T14:40:00Z,26.4040,-90.7920,28.91113,11111222 
ADCP,ioos:station:wmo:42395:1,2019-10-01T15:00:00Z,26.4040,-90.7920,28.91113,11111222 
ADCP,ioos:station:wmo:42395:1,2019-10-01T15:20:00Z,26.4040,-90.7920,28.91113,11111222 
ADCP,ioos:station:wmo:42395:1,2019-10-01T15:40:00Z,26.4040,-90.7920,28.97461,11111222 
ADCP,ioos:station:wmo:42395:1,2019-10-01T16:00:00Z,26.4040,-90.7920,29.03809,11111222 
ADCP,ioos:station:wmo:42395:1,2019-10-01T16:20:00Z,26.4040,-90.7920,29.10156,11111222 
ADCP,ioos:station:wmo:42395:1,2019-10-01T16:40:00Z,26.4040,-90.7920,29.10156,11111222 
ADCP,ioos:station:wmo:42395:1,2019-10-01T17:00:00Z,26.4040,-90.7920,29.16504,11111222 
ADCP,ioos:station:wmo:42395:1,2019-10-01T17:20:00Z,26.4040,-90.7920,29.22852,11111222 
ADCP,ioos:station:wmo:42395:1,2019-10-01T17:40:00Z,26.4040,-90.7920,29.22852,11111222 
ADCP,ioos:station:wmo:42395:1,2019-10-01T18:00:00Z,26.4040,-90.7920,29.29199,11111222 
ADCP,ioos:station:wmo:42395:1,2019-10-01T18:20:00Z,26.4040,-90.7920,29.22852,11111222 
ADCP,ioos:station:wmo:42395:1,2019-10-01T18:40:00Z,26.4040,-90.7920,29.29199,11111222 
ADCP,ioos:station:wmo:42395:1,2019-10-01T19:00:00Z,26.4040,-90.7920,29.29199,11111222 
ADCP,ioos:station:wmo:42395:1,2019-10-01T19:20:00Z,26.4040,-90.7920,29.35547,11111222 
ADCP,ioos:station:wmo:42395:1,2019-10-01T19:40:00Z,26.4040,-90.7920,29.35547,11111222 
ADCP,ioos:station:wmo:42395:1,2019-10-01T20:00:00Z,26.4040,-90.7920,29.35547,11111222 
ADCP,ioos:station:wmo:42395:1,2019-10-01T20:20:00Z,26.4040,-90.7920,29.35547,11111222 
ADCP,ioos:station:wmo:42395:1,2019-10-01T20:40:00Z,26.4040,-90.7920,29.41895,11111222 
ADCP,ioos:station:wmo:42395:1,2019-10-01T21:00:00Z,26.4040,-90.7920,29.35547,11111222 
ADCP,ioos:station:wmo:42395:1,2019-10-01T21:20:00Z,26.4040,-90.7920,29.35547,11111222 
ADCP,ioos:station:wmo:42395:1,2019-10-01T21:40:00Z,26.4040,-90.7920,29.35547,11111222 
ADCP,ioos:station:wmo:42395:1,2019-10-01T22:00:00Z,26.4040,-90.7920,29.35547,11111222 
ADCP,ioos:station:wmo:42395:1,2019-10-01T22:20:00Z,26.4040,-90.7920,29.35547,11111222 
ADCP,ioos:station:wmo:42395:1,2019-10-01T22:40:00Z,26.4040,-90.7920,29.35547,11111222 
ADCP,ioos:station:wmo:42395:1,2019-10-01T23:00:00Z,26.4040,-90.7920,29.35547,11111222 
ADCP,ioos:station:wmo:42395:1,2019-10-01T23:20:00Z,26.4040,-90.7920,29.41895,11111222 
ADCP,ioos:station:wmo:42395:1,2019-10-01T23:40:00Z,26.4040,-90.7920,29.35547,11111222 
ADCP,ioos:station:wmo:42395:1,2019-10-02T00:00:00Z,26.4040,-90.7920,29.29199,11111222 
ADCP,ioos:station:wmo:42395:1,2019-10-02T00:20:00Z,26.4040,-90.7920,29.29199,11111222 
ADCP,ioos:station:wmo:42395:1,2019-10-02T00:40:00Z,26.4040,-90.7920,29.22852,11111222 
ADCP,ioos:station:wmo:42395:1,2019-10-02T01:00:00Z,26.4040,-90.7920,29.22852,11111222 
ADCP,ioos:station:wmo:42395:1,2019-10-02T01:20:00Z,26.4040,-90.7920,29.22852,11111222 
ADCP,ioos:station:wmo:42395:1,2019-10-02T01:40:00Z,26.4040,-90.7920,29.22852,11111222 
ADCP,ioos:station:wmo:42395:1,2019-10-02T02:00:00Z,26.4040,-90.7920,29.22852,11111222 
ADCP,ioos:station:wmo:42395:1,2019-10-02T02:20:00Z,26.4040,-90.7920,29.22852,11111222 
ADCP,ioos:station:wmo:42395:1,2019-10-02T02:40:00Z,26.4040,-90.7920,29.22852,11111222 
ADCP,ioos:station:wmo:42395:1,2019-10-02T03:00:00Z,26.4040,-90.7920,29.16504,11111222 
ADCP,ioos:station:wmo:42395:1,2019-10-02T03:20:00Z,26.4040,-90.7920,29.16504,11111222 
ADCP,ioos:station:wmo:42395:1,2019-10-02T03:40:00Z,26.4040,-90.7920,28.91113,11111222 
ADCP,ioos:station:wmo:42395:1,2019-10-02T04:00:00Z,26.4040,-90.7920,28.97461,11111222 
ADCP,ioos:station:wmo:42395:1,2019-10-02T04:20:00Z,26.4040,-90.7920,29.16504,11111222 
ADCP,ioos:station:wmo:42395:1,2019-10-02T04:40:00Z,26.4040,-90.7920,29.22852,11111222 
ADCP,ioos:station:wmo:42395:1,2019-10-02T05:00:00Z,26.4040,-90.7920,29.10156,11111222 
ADCP,ioos:station:wmo:42395:1,2019-10-02T05:20:00Z,26.4040,-90.7920,28.91113,11111222 
ADCP,ioos:station:wmo:42395:1,2019-10-02T05:40:00Z,26.4040,-90.7920,28.91113,11111222 
ADCP,ioos:station:wmo:42395:1,2019-10-02T06:00:00Z,26.4040,-90.7920,28.91113,11111222 
ADCP,ioos:station:wmo:42395:1,2019-10-02T06:20:00Z,26.4040,-90.7920,28.84766,11111222 
ADCP,ioos:station:wmo:42395:1,2019-10-02T06:40:00Z,26.4040,-90.7920,28.78418,11111222 
ADCP,ioos:station:wmo:42395:1,2019-10-02T07:00:00Z,26.4040,-90.7920,28.78418,11111222 
ADCP,ioos:station:wmo:42395:1,2019-10-02T07:20:00Z,26.4040,-90.7920,28.7207,11111222 
ADCP,ioos:station:wmo:42395:1,2019-10-02T07:40:00Z,26.4040,-90.7920,28.65723,11111222 
ADCP,ioos:station:wmo:42395:1,2019-10-02T08:00:00Z,26.4040,-90.7920,28.7207,11111222 
ADCP,ioos:station:wmo:42395:1,2019-10-02T08:20:00Z,26.4040,-90.7920,28.7207,11111222 
ADCP,ioos:station:wmo:42395:1,2019-10-02T08:40:00Z,26.4040,-90.7920,28.65723,11111222 
ADCP,ioos:station:wmo:42395:1,2019-10-02T09:00:00Z,26.4040,-90.7920,28.65723,11111222 
ADCP,ioos:station:wmo:42395:1,2019-10-02T09:20:00Z,26.4040,-90.7920,28.65723,11111222 
ADCP,ioos:station:wmo:42395:1,2019-10-02T10:00:00Z,26.4040,-90.7920,28.65723,11111222 
ADCP,ioos:station:wmo:42395:1,2019-10-02T10:20:00Z,26.4040,-90.7920,28.65723,11111222 
ADCP,ioos:station:wmo:42395:1,2019-10-02T10:40:00Z,26.4040,-90.7920,28.65723,11111222 
ADCP,ioos:station:wmo:42395:1,2019-10-02T11:00:00Z,26.4040,-90.7920,28.65723,11111222 
ADCP,ioos:station:wmo:42395:1,2019-10-02T11:20:00Z,26.4040,-90.7920,28.78418,11111222 
ADCP,ioos:station:wmo:42395:1,2019-10-02T11:40:00Z,26.4040,-90.7920,28.84766,11111222 
ADCP,ioos:station:wmo:42395:1,2019-10-02T12:00:00Z,26.4040,-90.7920,28.78418,11111222 
ADCP,ioos:station:wmo:42395:1,2019-10-02T12:20:00Z,26.4040,-90.7920,28.78418,11111222 
ADCP,ioos:station:wmo:42395:1,2019-10-02T12:40:00Z,26.4040,-90.7920,28.78418,11111222 
ADCP,ioos:station:wmo:42395:1,2019-10-02T13:00:00Z,26.4040,-90.7920,28.84766,11111222 
ADCP,ioos:station:wmo:42395:1,2019-10-02T13:20:00Z,26.4040,-90.7920,28.97461,11111222 
ADCP,ioos:station:wmo:42395:1,2019-10-02T13:40:00Z,26.4040,-90.7920,28.97461,11111222 
ADCP,ioos:station:wmo:42395:1,2019-10-02T14:00:00Z,26.4040,-90.7920,28.97461,11111222 
ADCP,ioos:station:wmo:42395:1,2019-10-02T14:20:00Z,26.4040,-90.7920,28.91113,11111222 
ADCP,ioos:station:wmo:42395:1,2019-10-02T14:40:00Z,26.4040,-90.7920,29.10156,11111222 
ADCP,ioos:station:wmo:42395:1,2019-10-02T15:00:00Z,26.4040,-90.7920,29.10156,11111222 
ADCP,ioos:station:wmo:42395:1,2019-10-02T15:20:00Z,26.4040,-90.7920,29.10156,11111222 
ADCP,ioos:station:wmo:42395:1,2019-10-02T15:40:00Z,26.4040,-90.7920,29.16504,11111222 
ADCP,ioos:station:wmo:42395:1,2019-10-02T16:00:00Z,26.4040,-90.7920,29.10156,11111222 
ADCP,ioos:station:wmo:42395:1,2019-10-02T16:20:00Z,26.4040,-90.7920,29.16504,11111222 
ADCP,ioos:station:wmo:42395:1,2019-10-02T16:40:00Z,26.4040,-90.7920,29.03809,11111222 
ADCP,ioos:station:wmo:42395:1,2019-10-02T17:00:00Z,26.4040,-90.7920,29.03809,11111222 
ADCP,ioos:station:wmo:42395:1,2019-10-02T17:20:00Z,26.4040,-90.7920,29.10156,11111222 
ADCP,ioos:station:wmo:42395:1,2019-10-02T17:40:00Z,26.4040,-90.7920,29.10156,11111222 
ADCP,ioos:station:wmo:42395:1,2019-10-02T18:00:00Z,26.4040,-90.7920,29.10156,11111222 
ADCP,ioos:station:wmo:42395:1,2019-10-02T18:20:00Z,26.4040,-90.7920,29.10156,11111222 
ADCP,ioos:station:wmo:42395:1,2019-10-02T18:40:00Z,26.4040,-90.7920,29.16504,11111222 
ADCP,ioos:station:wmo:42395:1,2019-10-02T19:00:00Z,26.4040,-90.7920,29.22852,11111222 
ADCP,ioos:station:wmo:42395:1,2019-10-02T19:20:00Z,26.4040,-90.7920,29.22852,11111222 
ADCP,ioos:station:wmo:42395:1,2019-10-02T19:40:00Z,26.4040,-90.7920,29.22852,11111222 
ADCP,ioos:station:wmo:42395:1,2019-10-02T20:00:00Z,26.4040,-90.7920,29.10156,11111222 
ADCP,ioos:station:wmo:42395:1,2019-10-02T20:20:00Z,26.4040,-90.7920,29.16504,11111222 
ADCP,ioos:station:wmo:42395:1,2019-10-02T20:40:00Z,26.4040,-90.7920,28.91113,11111222 
ADCP,ioos:station:wmo:42395:1,2019-10-02T21:00:00Z,26.4040,-90.7920,28.97461,11111222 
ADCP,ioos:station:wmo:42395:1,2019-10-02T21:20:00Z,26.4040,-90.7920,29.10156,11111222 
ADCP,ioos:station:wmo:42395:1,2019-10-02T21:40:00Z,26.4040,-90.7920,29.03809,11111222 
ADCP,ioos:station:wmo:42395:1,2019-10-02T22:00:00Z,26.4040,-90.7920,28.91113,11111222 
ADCP,ioos:station:wmo:42395:1,2019-10-02T22:20:00Z,26.4040,-90.7920,29.03809,11111222 
ADCP,ioos:station:wmo:42395:1,2019-10-02T22:40:00Z,26.4040,-90.7920,29.10156,11111222 
ADCP,ioos:station:wmo:42395:1,2019-10-02T23:00:00Z,26.4040,-90.7920,29.03809,11111222 
ADCP,ioos:station:wmo:42395:1,2019-10-02T23:20:00Z,26.4040,-90.7920,28.97461,11111222 
ADCP,ioos:station:wmo:42395:1,2019-10-02T23:40:00Z,26.4040,-90.7920,28.91113,11111222 
ADCP,ioos:station:wmo:42395:1,2019-10-03T00:00:00Z,26.4040,-90.7920,28.91113,11111222 
ADCP,ioos:station:wmo:42395:1,2019-10-03T00:20:00Z,26.4040,-90.7920,28.84766,11111222 
ADCP,ioos:station:wmo:42395:1,2019-10-03T00:40:00Z,26.4040,-90.7920,28.91113,11111222 
ADCP,ioos:station:wmo:42395:1,2019-10-03T01:00:00Z,26.4040,-90.7920,28.97461,11111222 
ADCP,ioos:station:wmo:42395:1,2019-10-03T01:20:00Z,26.4040,-90.7920,28.91113,11111222 
ADCP,ioos:station:wmo:42395:1,2019-10-03T01:40:00Z,26.4040,-90.7920,28.91113,11111222 
ADCP,ioos:station:wmo:42395:1,2019-10-03T02:00:00Z,26.4040,-90.7920,28.91113,11111222 
ADCP,ioos:station:wmo:42395:1,2019-10-03T02:20:00Z,26.4040,-90.7920,28.91113,11111222 
ADCP,ioos:station:wmo:42395:1,2019-10-03T02:40:00Z,26.4040,-90.7920,28.84766,11111222 
ADCP,ioos:station:wmo:42395:1,2019-10-03T03:00:00Z,26.4040,-90.7920,28.84766,11111222 
ADCP,ioos:station:wmo:42395:1,2019-10-03T03:20:00Z,26.4040,-90.7920,28.84766,11111222 
ADCP,ioos:station:wmo:42395:1,2019-10-03T03:40:00Z,26.4040,-90.7920,28.7207,11111222 
ADCP,ioos:station:wmo:42395:1,2019-10-03T04:00:00Z,26.4040,-90.7920,28.91113,11111222 
ADCP,ioos:station:wmo:42395:1,2019-10-03T04:20:00Z,26.4040,-90.7920,28.84766,11111222 
ADCP,ioos:station:wmo:42395:1,2019-10-03T04:40:00Z,26.4040,-90.7920,28.78418,11111222 
ADCP,ioos:station:wmo:42395:1,2019-10-03T05:00:00Z,26.4040,-90.7920,28.78418,11111222 
ADCP,ioos:station:wmo:42395:1,2019-10-03T05:20:00Z,26.4040,-90.7920,28.65723,11111222 
ADCP,ioos:station:wmo:42395:1,2019-10-03T05:40:00Z,26.4040,-90.7920,28.59375,11111222 
ADCP,ioos:station:wmo:42395:1,2019-10-03T06:00:00Z,26.4040,-90.7920,28.65723,11111222 
ADCP,ioos:station:wmo:42395:1,2019-10-03T06:20:00Z,26.4040,-90.7920,28.7207,11111222 
ADCP,ioos:station:wmo:42395:1,2019-10-03T06:40:00Z,26.4040,-90.7920,28.65723,11111222 
ADCP,ioos:station:wmo:42395:1,2019-10-03T07:00:00Z,26.4040,-90.7920,28.65723,11111222 
ADCP,ioos:station:wmo:42395:1,2019-10-03T07:20:00Z,26.4040,-90.7920,28.7207,11111222 
ADCP,ioos:station:wmo:42395:1,2019-10-03T07:40:00Z,26.4040,-90.7920,28.7207,11111222 
ADCP,ioos:station:wmo:42395:1,2019-10-03T08:00:00Z,26.4040,-90.7920,28.65723,11111222 
ADCP,ioos:station:wmo:42395:1,2019-10-03T08:20:00Z,26.4040,-90.7920,28.53027,11111222 
ADCP,ioos:station:wmo:42395:1,2019-10-03T08:40:00Z,26.4040,-90.7920,28.59375,11111222 
ADCP,ioos:station:wmo:42395:1,2019-10-03T09:00:00Z,26.4040,-90.7920,28.59375,11111222 
ADCP,ioos:station:wmo:42395:1,2019-10-03T09:20:00Z,26.4040,-90.7920,28.53027,11111222 
ADCP,ioos:station:wmo:42395:1,2019-10-03T09:40:00Z,26.4040,-90.7920,28.27637,11111222 
ADCP,ioos:station:wmo:42395:1,2019-10-03T10:00:00Z,26.4040,-90.7920,28.40332,11111222 
ADCP,ioos:station:wmo:42395:1,2019-10-03T10:20:00Z,26.4040,-90.7920,28.27637,11111222 
ADCP,ioos:station:wmo:42395:1,2019-10-03T10:40:00Z,26.4040,-90.7920,28.53027,11111222 
ADCP,ioos:station:wmo:42395:1,2019-10-03T11:00:00Z,26.4040,-90.7920,28.59375,11111222 
ADCP,ioos:station:wmo:42395:1,2019-10-03T11:20:00Z,26.4040,-90.7920,28.59375,11111222 
ADCP,ioos:station:wmo:42395:1,2019-10-03T11:40:00Z,26.4040,-90.7920,28.59375,11111222 
ADCP,ioos:station:wmo:42395:1,2019-10-03T12:00:00Z,26.4040,-90.7920,28.53027,11111222 
ADCP,ioos:station:wmo:42395:1,2019-10-03T12:20:00Z,26.4040,-90.7920,28.53027,11111222 
ADCP,ioos:station:wmo:42395:1,2019-10-03T12:40:00Z,26.4040,-90.7920,28.53027,11111222 
ADCP,ioos:station:wmo:42395:1,2019-10-03T13:00:00Z,26.4040,-90.7920,28.59375,11111222 
ADCP,ioos:station:wmo:42395:1,2019-10-03T13:20:00Z,26.4040,-90.7920,28.65723,11111222 
ADCP,ioos:station:wmo:42395:1,2019-10-03T13:40:00Z,26.4040,-90.7920,28.65723,11111222 
ADCP,ioos:station:wmo:42395:1,2019-10-03T14:00:00Z,26.4040,-90.7920,28.65723,11111222 
ADCP,ioos:station:wmo:42395:1,2019-10-03T14:20:00Z,26.4040,-90.7920,28.65723,11111222 
ADCP,ioos:station:wmo:42395:1,2019-10-03T14:40:00Z,26.4040,-90.7920,28.7207,11111222 
ADCP,ioos:station:wmo:42395:1,2019-10-03T15:00:00Z,26.4040,-90.7920,28.78418,11111222 
ADCP,ioos:station:wmo:42395:1,2019-10-03T15:20:00Z,26.4040,-90.7920,28.78418,11111222 
ADCP,ioos:station:wmo:42395:1,2019-10-03T16:00:00Z,26.4040,-90.7920,28.78418,11111222 
ADCP,ioos:station:wmo:42395:1,2019-10-03T16:20:00Z,26.4040,-90.7920,28.84766,11111222 
ADCP,ioos:station:wmo:42395:1,2019-10-03T16:40:00Z,26.4040,-90.7920,28.91113,11111222 
ADCP,ioos:station:wmo:42395:1,2019-10-03T17:00:00Z,26.4040,-90.7920,28.97461,11111222 
ADCP,ioos:station:wmo:42395:1,2019-10-03T17:20:00Z,26.4040,-90.7920,29.03809,11111222 
ADCP,ioos:station:wmo:42395:1,2019-10-03T17:40:00Z,26.4040,-90.7920,28.97461,11111222 
ADCP,ioos:station:wmo:42395:1,2019-10-03T18:00:00Z,26.4040,-90.7920,29.03809,11111222 
ADCP,ioos:station:wmo:42395:1,2019-10-03T18:20:00Z,26.4040,-90.7920,29.10156,11111222 
ADCP,ioos:station:wmo:42395:1,2019-10-03T18:40:00Z,26.4040,-90.7920,29.16504,11111222 
ADCP,ioos:station:wmo:42395:1,2019-10-03T19:00:00Z,26.4040,-90.7920,29.16504,11111222 
ADCP,ioos:station:wmo:42395:1,2019-10-03T19:20:00Z,26.4040,-90.7920,29.22852,11111222 
ADCP,ioos:station:wmo:42395:1,2019-10-03T19:40:00Z,26.4040,-90.7920,29.10156,11111222 
ADCP,ioos:station:wmo:42395:1,2019-10-03T20:00:00Z,26.4040,-90.7920,29.03809,11111222 
ADCP,ioos:station:wmo:42395:1,2019-10-03T20:20:00Z,26.4040,-90.7920,29.29199,11111222 
ADCP,ioos:station:wmo:42395:1,2019-10-03T20:40:00Z,26.4040,-90.7920,29.29199,11111222 
ADCP,ioos:station:wmo:42395:1,2019-10-03T21:00:00Z,26.4040,-90.7920,29.29199,11111222 
ADCP,ioos:station:wmo:42395:1,2019-10-03T21:20:00Z,26.4040,-90.7920,29.35547,11111222 
ADCP,ioos:station:wmo:42395:1,2019-10-03T21:40:00Z,26.4040,-90.7920,29.29199,11111222 
ADCP,ioos:station:wmo:42395:1,2019-10-03T22:00:00Z,26.4040,-90.7920,29.29199,11111222 
ADCP,ioos:station:wmo:42395:1,2019-10-03T22:20:00Z,26.4040,-90.7920,29.29199,11111222 
ADCP,ioos:station:wmo:42395:1,2019-10-03T22:40:00Z,26.4040,-90.7920,29.16504,11111222 
ADCP,ioos:station:wmo:42395:1,2019-10-03T23:00:00Z,26.4040,-90.7920,29.22852,11111222 
ADCP,ioos:station:wmo:42395:1,2019-10-03T23:20:00Z,26.4040,-90.7920,29.16504,11111222 
ADCP,ioos:station:wmo:42395:1,2019-10-03T23:40:00Z,26.4040,-90.7920,29.22852,11111222 
ADCP,ioos:station:wmo:42395:1,2019-10-04T00:00:00Z,26.4040,-90.7920,29.16504,11111222 
ADCP,ioos:station:wmo:42395:1,2019-10-04T00:20:00Z,26.4040,-90.7920,29.16504,11111222 
ADCP,ioos:station:wmo:42395:1,2019-10-04T00:40:00Z,26.4040,-90.7920,29.16504,11111222 
ADCP,ioos:station:wmo:42395:1,2019-10-04T01:00:00Z,26.4040,-90.7920,29.16504,11111222 
ADCP,ioos:station:wmo:42395:1,2019-10-04T01:20:00Z,26.4040,-90.7920,29.16504,11111222 
ADCP,ioos:station:wmo:42395:1,2019-10-04T01:40:00Z,26.4040,-90.7920,29.10156,11111222 
ADCP,ioos:station:wmo:42395:1,2019-10-04T02:00:00Z,26.4040,-90.7920,29.03809,11111222 
ADCP,ioos:station:wmo:42395:1,2019-10-04T02:20:00Z,26.4040,-90.7920,29.03809,11111222 
ADCP,ioos:station:wmo:42395:1,2019-10-04T02:40:00Z,26.4040,-90.7920,29.03809,11111222 
ADCP,ioos:station:wmo:42395:1,2019-10-04T03:00:00Z,26.4040,-90.7920,29.03809,11111222 
ADCP,ioos:station:wmo:42395:1,2019-10-07T14:40:00Z,26.4040,-90.7920,28.40332,11111222 
ADCP,ioos:station:wmo:42395:1,2019-10-07T15:00:00Z,26.4040,-90.7920,28.33984,11111222 
ADCP,ioos:station:wmo:42395:1,2019-10-07T15:20:00Z,26.4040,-90.7920,28.40332,11111222 
ADCP,ioos:station:wmo:42395:1,2019-10-07T15:40:00Z,26.4040,-90.7920,28.4668,11111222 
ADCP,ioos:station:wmo:42395:1,2019-10-07T16:00:00Z,26.4040,-90.7920,28.40332,11111222 
ADCP,ioos:station:wmo:42395:1,2019-10-07T16:20:00Z,26.4040,-90.7920,28.4668,11111222 
ADCP,ioos:station:wmo:42395:1,2019-10-07T16:40:00Z,26.4040,-90.7920,28.53027,11111222 
ADCP,ioos:station:wmo:42395:1,2019-10-07T17:00:00Z,26.4040,-90.7920,28.59375,11111222 
ADCP,ioos:station:wmo:42395:1,2019-10-07T17:20:00Z,26.4040,-90.7920,28.59375,11111222 
ADCP,ioos:station:wmo:42395:1,2019-10-07T17:40:00Z,26.4040,-90.7920,28.4668,11111222 
ADCP,ioos:station:wmo:42395:1,2019-10-07T18:00:00Z,26.4040,-90.7920,28.4668,11111222 
ADCP,ioos:station:wmo:42395:1,2019-10-07T18:20:00Z,26.4040,-90.7920,28.4668,11111222 
ADCP,ioos:station:wmo:42395:1,2019-10-07T18:40:00Z,26.4040,-90.7920,28.4668,11111222 
ADCP,ioos:station:wmo:42395:1,2019-10-07T19:00:00Z,26.4040,-90.7920,28.40332,11111222 
ADCP,ioos:station:wmo:42395:1,2019-10-07T19:20:00Z,26.4040,-90.7920,28.53027,11111222 
ADCP,ioos:station:wmo:42395:1,2019-10-07T19:40:00Z,26.4040,-90.7920,28.53027,11111222 
ADCP,ioos:station:wmo:42395:1,2019-10-07T20:00:00Z,26.4040,-90.7920,28.4668,11111222 
ADCP,ioos:station:wmo:42395:1,2019-10-07T20:20:00Z,26.4040,-90.7920,28.4668,11111222 
ADCP,ioos:station:wmo:42395:1,2019-10-07T20:40:00Z,26.4040,-90.7920,28.65723,11111222 
ADCP,ioos:station:wmo:42395:1,2019-10-07T21:00:00Z,26.4040,-90.7920,28.65723,11111222 
ADCP,ioos:station:wmo:42395:1,2019-10-07T21:20:00Z,26.4040,-90.7920,28.65723,11111222 
ADCP,ioos:station:wmo:42395:1,2019-10-07T21:40:00Z,26.4040,-90.7920,28.65723,11111222 
ADCP,ioos:station:wmo:42395:1,2019-10-07T22:00:00Z,26.4040,-90.7920,28.7207,11111222 
ADCP,ioos:station:wmo:42395:1,2019-10-07T22:20:00Z,26.4040,-90.7920,28.7207,11111222 
ADCP,ioos:station:wmo:42395:1,2019-10-07T22:40:00Z,26.4040,-90.7920,28.84766,11111222 
ADCP,ioos:station:wmo:42395:1,2019-10-07T23:00:00Z,26.4040,-90.7920,28.84766,11111222 
ADCP,ioos:station:wmo:42395:1,2019-10-07T23:20:00Z,26.4040,-90.7920,28.78418,11111222 
ADCP,ioos:station:wmo:42395:1,2019-10-07T23:40:00Z,26.4040,-90.7920,28.65723,11111222 
ADCP,ioos:station:wmo:42395:1,2019-10-08T00:00:00Z,26.4040,-90.7920,28.59375,11111222 
ADCP,ioos:station:wmo:42395:1,2019-10-08T00:20:00Z,26.4040,-90.7920,28.59375,11111222 
ADCP,ioos:station:wmo:42395:1,2019-10-08T00:40:00Z,26.4040,-90.7920,28.59375,11111222 
ADCP,ioos:station:wmo:42395:1,2019-10-08T01:00:00Z,26.4040,-90.7920,28.65723,11111222 
ADCP,ioos:station:wmo:42395:1,2019-10-08T01:20:00Z,26.4040,-90.7920,28.59375,11111222 
ADCP,ioos:station:wmo:42395:1,2019-10-08T01:40:00Z,26.4040,-90.7920,28.59375,11111222 
ADCP,ioos:station:wmo:42395:1,2019-10-08T02:00:00Z,26.4040,-90.7920,28.65723,11111222 
ADCP,ioos:station:wmo:42395:1,2019-10-08T02:20:00Z,26.4040,-90.7920,28.59375,11111222 
ADCP,ioos:station:wmo:42395:1,2019-10-08T02:40:00Z,26.4040,-90.7920,28.65723,11111222 
ADCP,ioos:station:wmo:42395:1,2019-10-08T03:00:00Z,26.4040,-90.7920,28.53027,11111222 
ADCP,ioos:station:wmo:42395:1,2019-10-08T03:20:00Z,26.4040,-90.7920,28.27637,11111222 
ADCP,ioos:station:wmo:42395:1,2019-10-08T03:40:00Z,26.4040,-90.7920,27.83203,11111222 
ADCP,ioos:station:wmo:42395:1,2019-10-08T04:00:00Z,26.4040,-90.7920,28.02246,11111222 
ADCP,ioos:station:wmo:42395:1,2019-10-08T04:20:00Z,26.4040,-90.7920,28.02246,11111222 
ADCP,ioos:station:wmo:42395:1,2019-10-08T04:40:00Z,26.4040,-90.7920,28.08594,11111222 
ADCP,ioos:station:wmo:42395:1,2019-10-08T05:00:00Z,26.4040,-90.7920,27.95898,11111222 
ADCP,ioos:station:wmo:42395:1,2019-10-08T05:20:00Z,26.4040,-90.7920,27.76855,11111222 
ADCP,ioos:station:wmo:42395:1,2019-10-08T05:40:00Z,26.4040,-90.7920,27.89551,11111222 
ADCP,ioos:station:wmo:42395:1,2019-10-08T06:00:00Z,26.4040,-90.7920,27.95898,11111222 
ADCP,ioos:station:wmo:42395:1,2019-10-08T06:20:00Z,26.4040,-90.7920,28.02246,11111222 
ADCP,ioos:station:wmo:42395:1,2019-10-08T06:40:00Z,26.4040,-90.7920,27.95898,11111222 
ADCP,ioos:station:wmo:42395:1,2019-10-08T07:00:00Z,26.4040,-90.7920,28.02246,11111222 
ADCP,ioos:station:wmo:42395:1,2019-10-08T07:20:00Z,26.4040,-90.7920,28.02246,11111222 
ADCP,ioos:station:wmo:42395:1,2019-10-08T07:40:00Z,26.4040,-90.7920,28.08594,11111222 